,,Stat6,,Stat2,,Stat8,,Stat9,,Stat10,,Wind1,,Wind1,
time,status,PA1M_AVG,status,PR1M_SUM,status,RH1M_AVG,status,SR1M_AVG,status,TA1M_AVG,status,W1dAve1m,status,W1sAve1m,
2005-08-24, 00:00:00,VALID,918.76,VALID,0,VALID,100,VALID,0.0339617,VALID,18.8469,VALID,125,VALID,0.700149,
2005-08-24, 00:01:00,VALID,918.741,VALID,0,VALID,100,VALID,0.0169808,VALID,18.8368,VALID,123,VALID,0.611151,
2005-08-24, 00:02:00,VALID,918.733,VALID,0,VALID,100,VALID,0.0169808,VALID,18.84,VALID,124,VALID,0.423473,
2005-08-24, 00:03:00,VALID,918.713,VALID,0,VALID,100,VALID,0.0169808,VALID,18.8472,VALID,124,VALID,0.341264,
2005-08-24, 00:04:00,VALID,918.695,VALID,0,VALID,100,VALID,0.0169808,VALID,18.8534,VALID,124,VALID,0.152071,
2005-08-24, 00:05:00,VALID,918.672,VALID,0.2,VALID,100,VALID,0.0339617,VALID,18.8596,VALID,138,VALID,0.188408,
2005-08-24, 00:06:00,VALID,918.644,VALID,0,VALID,100,VALID,0,VALID,18.8594,VALID,242,VALID,0.528011,
2005-08-24, 00:07:00,VALID,918.62,VALID,0,VALID,100,VALID,0.0339617,VALID,18.8695,VALID,242,VALID,0.465199,
2005-08-24, 00:08:00,VALID,918.604,VALID,0,VALID,100,VALID,0.0169808,VALID,18.8693,VALID,254,VALID,0.521875,
2005-08-24, 00:09:00,VALID,918.598,VALID,0,VALID,100,VALID,0.0339617,VALID,18.8725,VALID,255,VALID,0.323686,
2005-08-24, 00:10:00,VALID,918.593,VALID,0,VALID,100,VALID,0.0339617,VALID,18.8497,VALID,255,VALID,0.387536,
2005-08-24, 00:11:00,VALID,918.606,VALID,0,VALID,100,VALID,0.0339617,VALID,18.8402,VALID,255,VALID,0.274164,
2005-08-24, 00:12:00,VALID,918.614,VALID,0,VALID,100,VALID,0.0679233,VALID,18.834,VALID,255,VALID,0.0658482,
2005-08-24, 00:13:00,VALID,918.626,VALID,0,VALID,100,VALID,0.0509425,VALID,18.8335,VALID,255,VALID,0,
2005-08-24, 00:14:00,VALID,918.627,VALID,0,VALID,100,VALID,0.0509425,VALID,18.8206,VALID,255,VALID,0,
2005-08-24, 00:15:00,VALID,918.641,VALID,0,VALID,100,VALID,-0.0509425,VALID,18.8417,VALID,255,VALID,0,
2005-08-24, 00:16:00,VALID,918.649,VALID,0,VALID,100,VALID,-0.0849042,VALID,18.8419,VALID,255,VALID,0,
2005-08-24, 00:17:00,VALID,918.654,VALID,0,VALID,100,VALID,-0.0509425,VALID,18.8287,VALID,255,VALID,0.0550686,
2005-08-24, 00:18:00,VALID,918.647,VALID,0,VALID,100,VALID,-0.0849042,VALID,18.79,VALID,255,VALID,0.134337,
2005-08-24, 00:19:00,VALID,918.642,VALID,0,VALID,100,VALID,-0.0849042,VALID,18.7676,VALID,220,VALID,0.172585,
2005-08-24, 00:20:00,VALID,918.635,VALID,0,VALID,100,VALID,-0.0509425,VALID,18.7644,VALID,194,VALID,0.388139,
2005-08-24, 00:21:00,VALID,918.63,VALID,0,VALID,100,VALID,-0.0509425,VALID,18.7542,VALID,185,VALID,0.504724,
2005-08-24, 00:22:00,VALID,918.627,VALID,0,VALID,100,VALID,-0.0679233,VALID,18.7478,VALID,181,VALID,0.489347,
2005-08-24, 00:23:00,VALID,918.627,VALID,0,VALID,100,VALID,-0.0849042,VALID,18.7612,VALID,181,VALID,0.484553,
2005-08-24, 00:24:00,VALID,918.63,VALID,0,VALID,100,VALID,-0.0849042,VALID,18.7776,VALID,157,VALID,0.447569,
2005-08-24, 00:25:00,VALID,918.635,VALID,0,VALID,100,VALID,-0.0679233,VALID,18.7607,VALID,119,VALID,0.27793,
2005-08-24, 00:26:00,VALID,918.644,VALID,0,VALID,100,VALID,-0.101885,VALID,18.7612,VALID,119,VALID,0.207031,
2005-08-24, 00:27:00,VALID,918.65,VALID,0,VALID,100,VALID,-0.0849042,VALID,18.7383,VALID,119,VALID,0.239099,
2005-08-24, 00:28:00,VALID,918.653,VALID,0,VALID,100,VALID,-0.101885,VALID,18.7291,VALID,119,VALID,0.235764,
2005-08-24, 00:29:00,VALID,918.646,VALID,0,VALID,100,VALID,-0.0509425,VALID,18.7319,VALID,119,VALID,0.323038,
2005-08-24, 00:30:00,VALID,918.638,VALID,0,VALID,100,VALID,0.0169808,VALID,18.7305,VALID,119,VALID,0.198219,
2005-08-24, 00:31:00,VALID,918.615,VALID,0,VALID,100,VALID,0.0339617,VALID,18.7335,VALID,119,VALID,0.359747,
2005-08-24, 00:32:00,VALID,918.597,VALID,0,VALID,100,VALID,0.0339617,VALID,18.7337,VALID,122,VALID,0.584549,
2005-08-24, 00:33:00,VALID,918.581,VALID,0,VALID,100,VALID,0.0169808,VALID,18.7397,VALID,127,VALID,0.665777,
2005-08-24, 00:34:00,VALID,918.561,VALID,0,VALID,100,VALID,0.0169808,VALID,18.7496,VALID,131,VALID,0.640625,
2005-08-24, 00:35:00,VALID,918.549,VALID,0,VALID,100,VALID,0.0169808,VALID,18.7399,VALID,103,VALID,0.615699,
2005-08-24, 00:36:00,VALID,918.543,VALID,0,VALID,100,VALID,0,VALID,18.7302,VALID,100,VALID,0.887576,
2005-08-24, 00:37:00,VALID,918.515,VALID,0,VALID,100,VALID,0.0169808,VALID,18.7175,VALID,82,VALID,0.832217,
2005-08-24, 00:38:00,VALID,918.482,VALID,0,VALID,100,VALID,0.0169808,VALID,18.7307,VALID,65,VALID,0.801897,
2005-08-24, 00:39:00,VALID,918.458,VALID,0,VALID,100,VALID,0.0169808,VALID,18.7009,VALID,46,VALID,0.827553,
2005-08-24, 00:40:00,VALID,918.42,VALID,0,VALID,100,VALID,0,VALID,18.7016,VALID,72,VALID,0.64623,
2005-08-24, 00:41:00,VALID,918.373,VALID,0,VALID,100,VALID,0,VALID,18.7146,VALID,71,VALID,0.556548,
2005-08-24, 00:42:00,VALID,918.332,VALID,0,VALID,100,VALID,0,VALID,18.7113,VALID,77,VALID,0.523438,
2005-08-24, 00:43:00,VALID,918.305,VALID,0,VALID,100,VALID,0,VALID,18.6947,VALID,93,VALID,0.459821,
2005-08-24, 00:44:00,VALID,918.274,VALID,0,VALID,100,VALID,0.0509425,VALID,18.6885,VALID,102,VALID,0.512277,
2005-08-24, 00:45:00,VALID,918.243,VALID,0,VALID,100,VALID,0.0339617,VALID,18.6887,VALID,105,VALID,0.207508,
2005-08-24, 00:46:00,VALID,918.217,VALID,0,VALID,100,VALID,0.0169808,VALID,18.6883,VALID,105,VALID,0.330966,
2005-08-24, 00:47:00,VALID,918.199,VALID,0,VALID,100,VALID,0.0169808,VALID,18.6848,VALID,105,VALID,0.435404,
2005-08-24, 00:48:00,VALID,918.188,VALID,0,VALID,100,VALID,0,VALID,18.6756,VALID,104,VALID,0.61843,
2005-08-24, 00:49:00,VALID,918.168,VALID,0,VALID,100,VALID,0.0509425,VALID,18.6627,VALID,89,VALID,0.780869,
2005-08-24, 00:50:00,VALID,918.136,VALID,0,VALID,100,VALID,0,VALID,18.6366,VALID,87,VALID,0.826079,
2005-08-24, 00:51:00,VALID,918.114,VALID,0,VALID,100,VALID,0.0169808,VALID,18.6145,VALID,94,VALID,0.87779,
2005-08-24, 00:52:00,VALID,918.094,VALID,0,VALID,100,VALID,0.0339617,VALID,18.5949,VALID,101,VALID,0.769159,
2005-08-24, 00:53:00,VALID,918.07,VALID,0,VALID,100,VALID,0.0169808,VALID,18.5889,VALID,106,VALID,0.606836,
2005-08-24, 00:54:00,VALID,918.05,VALID,0,VALID,100,VALID,0.0169808,VALID,18.5919,VALID,130,VALID,0.751302,
2005-08-24, 00:55:00,VALID,918.009,VALID,0,VALID,100,VALID,0,VALID,18.5919,VALID,141,VALID,0.704397,
2005-08-24, 00:56:00,VALID,917.987,VALID,0,VALID,100,VALID,0,VALID,18.5891,VALID,138,VALID,0.701758,
2005-08-24, 00:57:00,VALID,917.958,VALID,0,VALID,100,VALID,-0.0169808,VALID,18.5921,VALID,139,VALID,0.693314,
2005-08-24, 00:58:00,VALID,917.932,VALID,0,VALID,100,VALID,0,VALID,18.6048,VALID,141,VALID,0.807776,
2005-08-24, 00:59:00,VALID,917.901,VALID,0,VALID,100,VALID,-0.0169808,VALID,18.6115,VALID,153,VALID,0.66673,
2005-08-24, 01:00:00,VALID,917.88,VALID,0,VALID,100,VALID,-0.0679233,VALID,18.6253,VALID,151,VALID,0.881424,
2005-08-24, 01:01:00,VALID,917.856,VALID,0,VALID,100,VALID,-0.101885,VALID,18.6186,VALID,150,VALID,0.583008,
2005-08-24, 01:02:00,VALID,917.832,VALID,0,VALID,100,VALID,-0.101885,VALID,18.6288,VALID,134,VALID,0.730923,
2005-08-24, 01:03:00,VALID,917.821,VALID,0,VALID,100,VALID,-0.0679233,VALID,18.6385,VALID,123,VALID,0.382068,
2005-08-24, 01:04:00,VALID,917.8,VALID,0,VALID,100,VALID,-0.101885,VALID,18.6348,VALID,118,VALID,0.169829,
2005-08-24, 01:05:00,VALID,917.784,VALID,0,VALID,100,VALID,-0.101885,VALID,18.6456,VALID,110,VALID,0.398237,
2005-08-24, 01:06:00,VALID,917.775,VALID,0,VALID,100,VALID,-0.0679233,VALID,18.6385,VALID,85,VALID,0.655208,
2005-08-24, 01:07:00,VALID,917.766,VALID,0,VALID,100,VALID,-0.0679233,VALID,18.6447,VALID,75,VALID,0.887463,
2005-08-24, 01:08:00,VALID,917.762,VALID,0,VALID,100,VALID,-0.0849042,VALID,18.6447,VALID,70,VALID,0.81157,
2005-08-24, 01:09:00,VALID,917.742,VALID,0,VALID,100,VALID,-0.0849042,VALID,18.6544,VALID,79,VALID,0.814024,
2005-08-24, 01:10:00,VALID,917.743,VALID,0,VALID,100,VALID,-0.101885,VALID,18.6355,VALID,86,VALID,0.904167,
2005-08-24, 01:11:00,VALID,917.726,VALID,0,VALID,100,VALID,-0.101885,VALID,18.6126,VALID,81,VALID,0.977108,
2005-08-24, 01:12:00,VALID,917.716,VALID,0,VALID,100,VALID,-0.101885,VALID,18.6059,VALID,83,VALID,1.07403,
2005-08-24, 01:13:00,VALID,917.713,VALID,0,VALID,100,VALID,-0.0509425,VALID,18.5963,VALID,67,VALID,1.17674,
2005-08-24, 01:14:00,VALID,917.71,VALID,0,VALID,100,VALID,-0.0679233,VALID,18.6022,VALID,66,VALID,1.5016,
2005-08-24, 01:15:00,VALID,917.709,VALID,0,VALID,100,VALID,0.0339617,VALID,18.608,VALID,72,VALID,1.41016,
2005-08-24, 01:16:00,VALID,917.698,VALID,0,VALID,100,VALID,0.0509425,VALID,18.611,VALID,72,VALID,1.47191,
2005-08-24, 01:17:00,VALID,917.691,VALID,0,VALID,100,VALID,0.0849042,VALID,18.6175,VALID,63,VALID,1.03582,
2005-08-24, 01:18:00,VALID,917.681,VALID,0,VALID,100,VALID,0.0509425,VALID,18.6373,VALID,78,VALID,1.09819,
2005-08-24, 01:19:00,VALID,917.665,VALID,0,VALID,100,VALID,0.0169808,VALID,18.6269,VALID,87,VALID,1.09908,
2005-08-24, 01:20:00,VALID,917.639,VALID,0,VALID,100,VALID,0.0169808,VALID,18.6304,VALID,76,VALID,0.923242,
2005-08-24, 01:21:00,VALID,917.618,VALID,0,VALID,100,VALID,0,VALID,18.6336,VALID,95,VALID,0.965298,
2005-08-24, 01:22:00,VALID,917.605,VALID,0,VALID,100,VALID,0,VALID,18.6431,VALID,95,VALID,0.75071,
2005-08-24, 01:23:00,VALID,917.593,VALID,0,VALID,100,VALID,0.0169808,VALID,18.6364,VALID,98,VALID,0.869665,
2005-08-24, 01:24:00,VALID,917.589,VALID,0,VALID,100,VALID,0,VALID,18.6564,VALID,112,VALID,0.906631,
2005-08-24, 01:25:00,VALID,917.581,VALID,0,VALID,100,VALID,0,VALID,18.6597,VALID,113,VALID,0.380149,
2005-08-24, 01:26:00,VALID,917.569,VALID,0,VALID,100,VALID,0.0169808,VALID,18.6693,VALID,135,VALID,0.895167,
2005-08-24, 01:27:00,VALID,917.564,VALID,0,VALID,100,VALID,0,VALID,18.6793,VALID,138,VALID,1.07217,
2005-08-24, 01:28:00,VALID,917.564,VALID,0,VALID,100,VALID,0,VALID,18.689,VALID,151,VALID,1.13021,
2005-08-24, 01:29:00,VALID,917.533,VALID,0,VALID,100,VALID,0.0169808,VALID,18.6892,VALID,137,VALID,0.818788,
2005-08-24, 01:30:00,VALID,917.499,VALID,0,VALID,100,VALID,0,VALID,18.6853,VALID,130,VALID,0.576367,
2005-08-24, 01:31:00,VALID,917.451,VALID,0,VALID,100,VALID,0.0169808,VALID,18.6793,VALID,124,VALID,0.524182,
2005-08-24, 01:32:00,VALID,917.418,VALID,0,VALID,100,VALID,-0.0169808,VALID,18.676,VALID,119,VALID,0.481898,
2005-08-24, 01:33:00,VALID,917.378,VALID,0,VALID,100,VALID,0.0169808,VALID,18.6696,VALID,103,VALID,0.68892,
2005-08-24, 01:34:00,VALID,917.341,VALID,0,VALID,100,VALID,0,VALID,18.6691,VALID,83,VALID,0.855015,
2005-08-24, 01:35:00,VALID,917.328,VALID,0,VALID,100,VALID,0,VALID,18.6694,VALID,83,VALID,0.845424,
2005-08-24, 01:36:00,VALID,917.3,VALID,0,VALID,100,VALID,0.0169808,VALID,18.6703,VALID,83,VALID,0.674851,
2005-08-24, 01:37:00,VALID,917.284,VALID,0,VALID,100,VALID,0,VALID,18.6502,VALID,87,VALID,0.81808,
2005-08-24, 01:38:00,VALID,917.253,VALID,0,VALID,100,VALID,0,VALID,18.6308,VALID,92,VALID,0.83085,
2005-08-24, 01:39:00,VALID,917.231,VALID,0,VALID,100,VALID,-0.0169808,VALID,18.6212,VALID,81,VALID,1.04916,
2005-08-24, 01:40:00,VALID,917.178,VALID,0,VALID,100,VALID,0.0169808,VALID,18.6045,VALID,77,VALID,0.860137,
2005-08-24, 01:41:00,VALID,917.144,VALID,0,VALID,100,VALID,0,VALID,18.6177,VALID,84,VALID,0.95827,
2005-08-24, 01:42:00,VALID,917.111,VALID,0,VALID,100,VALID,-0.0169808,VALID,18.6147,VALID,84,VALID,0.963086,
2005-08-24, 01:43:00,VALID,917.089,VALID,0,VALID,100,VALID,0.0339617,VALID,18.6082,VALID,92,VALID,0.846168,
2005-08-24, 01:44:00,VALID,917.066,VALID,0,VALID,100,VALID,0.0169808,VALID,18.6085,VALID,96,VALID,1.03216,
2005-08-24, 01:45:00,VALID,917.048,VALID,0,VALID,100,VALID,0,VALID,18.6052,VALID,85,VALID,0.779576,
2005-08-24, 01:46:00,VALID,917.033,VALID,0,VALID,100,VALID,0,VALID,18.5879,VALID,94,VALID,0.976563,
2005-08-24, 01:47:00,VALID,917.002,VALID,0,VALID,100,VALID,0,VALID,18.5854,VALID,93,VALID,1.1936,
2005-08-24, 01:48:00,VALID,916.979,VALID,0,VALID,100,VALID,-0.0169808,VALID,18.5792,VALID,87,VALID,0.897396,
2005-08-24, 01:49:00,VALID,916.955,VALID,0,VALID,100,VALID,0,VALID,18.5727,VALID,82,VALID,0.910792,
2005-08-24, 01:50:00,VALID,916.934,VALID,0,VALID,100,VALID,0,VALID,18.5693,VALID,82,VALID,0.590554,
2005-08-24, 01:51:00,VALID,916.924,VALID,0,VALID,100,VALID,0,VALID,18.5863,VALID,82,VALID,0.305432,
2005-08-24, 01:52:00,VALID,916.921,VALID,0,VALID,100,VALID,-0.0169808,VALID,18.5593,VALID,82,VALID,0.018821,
2005-08-24, 01:53:00,VALID,916.912,VALID,0,VALID,100,VALID,0,VALID,18.5667,VALID,82,VALID,0,
2005-08-24, 01:54:00,VALID,916.883,VALID,0,VALID,100,VALID,0,VALID,18.5637,VALID,82,VALID,0.0323401,
2005-08-24, 01:55:00,VALID,916.877,VALID,0,VALID,100,VALID,0.0169808,VALID,18.5536,VALID,82,VALID,0.132241,
2005-08-24, 01:56:00,VALID,916.86,VALID,0,VALID,100,VALID,0,VALID,18.531,VALID,82,VALID,0.588867,
2005-08-24, 01:57:00,VALID,916.854,VALID,0,VALID,100,VALID,-0.0169808,VALID,18.5248,VALID,82,VALID,0.774503,
2005-08-24, 01:58:00,VALID,916.833,VALID,0,VALID,100,VALID,0,VALID,18.5181,VALID,80,VALID,0.929874,
2005-08-24, 01:59:00,VALID,916.829,VALID,0,VALID,100,VALID,-0.0339617,VALID,18.519,VALID,77,VALID,0.720238,
2005-08-24, 02:00:00,VALID,916.799,VALID,0,VALID,100,VALID,-0.0169808,VALID,18.4989,VALID,80,VALID,0.740234,
2005-08-24, 02:01:00,VALID,916.79,VALID,0,VALID,100,VALID,-0.0169808,VALID,18.4766,VALID,82,VALID,0.730646,
2005-08-24, 02:02:00,VALID,916.774,VALID,0,VALID,100,VALID,0,VALID,18.4664,VALID,99,VALID,0.887847,
2005-08-24, 02:03:00,VALID,916.757,VALID,0,VALID,100,VALID,0,VALID,18.4828,VALID,99,VALID,0.834077,
2005-08-24, 02:04:00,VALID,916.721,VALID,0,VALID,100,VALID,0,VALID,18.5022,VALID,109,VALID,1.07564,
2005-08-24, 02:05:00,VALID,916.712,VALID,0,VALID,100,VALID,0,VALID,18.5116,VALID,107,VALID,0.686928,
2005-08-24, 02:06:00,VALID,916.697,VALID,0,VALID,100,VALID,0,VALID,18.5215,VALID,150,VALID,0.53452,
2005-08-24, 02:07:00,VALID,916.678,VALID,0,VALID,100,VALID,0.0169808,VALID,18.5019,VALID,127,VALID,0.657948,
2005-08-24, 02:08:00,VALID,916.674,VALID,0,VALID,100,VALID,0,VALID,18.5121,VALID,140,VALID,0.749637,
2005-08-24, 02:09:00,VALID,916.677,VALID,0,VALID,100,VALID,0,VALID,18.5086,VALID,143,VALID,0.698552,
2005-08-24, 02:10:00,VALID,916.673,VALID,0,VALID,100,VALID,0,VALID,18.5086,VALID,161,VALID,0.781808,
2005-08-24, 02:11:00,VALID,916.693,VALID,0,VALID,100,VALID,0,VALID,18.4892,VALID,158,VALID,0.793648,
2005-08-24, 02:12:00,VALID,916.688,VALID,0,VALID,100,VALID,0,VALID,18.4768,VALID,155,VALID,0.909339,
2005-08-24, 02:13:00,VALID,916.686,VALID,0,VALID,100,VALID,0,VALID,18.4629,VALID,161,VALID,0.803089,
2005-08-24, 02:14:00,VALID,916.666,VALID,0,VALID,100,VALID,-0.0169808,VALID,18.444,VALID,158,VALID,1.00911,
2005-08-24, 02:15:00,VALID,916.632,VALID,0,VALID,100,VALID,-0.0169808,VALID,18.4443,VALID,154,VALID,1.01935,
2005-08-24, 02:16:00,VALID,916.605,VALID,0,VALID,100,VALID,0,VALID,18.444,VALID,156,VALID,1.02689,
2005-08-24, 02:17:00,VALID,916.58,VALID,0,VALID,100,VALID,-0.0169808,VALID,18.4371,VALID,154,VALID,1.2104,
2005-08-24, 02:18:00,VALID,916.559,VALID,0,VALID,100,VALID,0,VALID,18.444,VALID,148,VALID,0.989901,
2005-08-24, 02:19:00,VALID,916.538,VALID,0,VALID,100,VALID,0,VALID,18.4475,VALID,148,VALID,0.744913,
2005-08-24, 02:20:00,VALID,916.51,VALID,0,VALID,100,VALID,-0.0339617,VALID,18.4507,VALID,156,VALID,0.666481,
2005-08-24, 02:21:00,VALID,916.501,VALID,0,VALID,100,VALID,-0.0169808,VALID,18.4443,VALID,162,VALID,0.722842,
2005-08-24, 02:22:00,VALID,916.481,VALID,0,VALID,100,VALID,-0.0339617,VALID,18.4475,VALID,161,VALID,0.787202,
2005-08-24, 02:23:00,VALID,916.467,VALID,0,VALID,100,VALID,0,VALID,18.4406,VALID,161,VALID,0.589666,
2005-08-24, 02:24:00,VALID,916.456,VALID,0,VALID,100,VALID,-0.0169808,VALID,18.457,VALID,161,VALID,0.453125,
2005-08-24, 02:25:00,VALID,916.455,VALID,0,VALID,100,VALID,-0.0339617,VALID,18.4535,VALID,161,VALID,0.670573,
2005-08-24, 02:26:00,VALID,916.451,VALID,0,VALID,100,VALID,-0.0169808,VALID,18.4606,VALID,161,VALID,0.464489,
2005-08-24, 02:27:00,VALID,916.454,VALID,0,VALID,100,VALID,-0.0339617,VALID,18.4666,VALID,155,VALID,0.762536,
2005-08-24, 02:28:00,VALID,916.464,VALID,0,VALID,100,VALID,0,VALID,18.4634,VALID,151,VALID,1.19572,
2005-08-24, 02:29:00,VALID,916.475,VALID,0,VALID,100,VALID,0,VALID,18.4729,VALID,142,VALID,1.15,
2005-08-24, 02:30:00,VALID,916.488,VALID,0,VALID,100,VALID,0,VALID,18.5059,VALID,144,VALID,1.26875,
2005-08-24, 02:31:00,VALID,916.505,VALID,0,VALID,100,VALID,0,VALID,18.5255,VALID,140,VALID,1.33339,
2005-08-24, 02:32:00,VALID,916.537,VALID,0,VALID,100,VALID,-0.0169808,VALID,18.5474,VALID,148,VALID,1.26012,
2005-08-24, 02:33:00,VALID,916.561,VALID,0,VALID,100,VALID,0,VALID,18.5803,VALID,138,VALID,1.49009,
2005-08-24, 02:34:00,VALID,916.595,VALID,0,VALID,100,VALID,0,VALID,18.5993,VALID,151,VALID,1.04306,
2005-08-24, 02:35:00,VALID,916.603,VALID,0,VALID,100,VALID,-0.0169808,VALID,18.6186,VALID,160,VALID,0.988477,
2005-08-24, 02:36:00,VALID,916.605,VALID,0,VALID,100,VALID,0.0169808,VALID,18.6253,VALID,160,VALID,0.943496,
2005-08-24, 02:37:00,VALID,916.599,VALID,0,VALID,100,VALID,0,VALID,18.6057,VALID,159,VALID,1.27144,
2005-08-24, 02:38:00,VALID,916.588,VALID,0,VALID,100,VALID,-0.0169808,VALID,18.5958,VALID,155,VALID,1.21857,
2005-08-24, 02:39:00,VALID,916.579,VALID,0,VALID,100,VALID,0,VALID,18.5637,VALID,140,VALID,0.858789,
2005-08-24, 02:40:00,VALID,916.573,VALID,0,VALID,100,VALID,-0.0169808,VALID,18.5379,VALID,140,VALID,0.834666,
2005-08-24, 02:41:00,VALID,916.563,VALID,0,VALID,100,VALID,0,VALID,18.5151,VALID,134,VALID,1.2474,
2005-08-24, 02:42:00,VALID,916.555,VALID,0,VALID,100,VALID,0,VALID,18.5091,VALID,141,VALID,1.28525,
2005-08-24, 02:43:00,VALID,916.55,VALID,0,VALID,100,VALID,-0.0339617,VALID,18.4957,VALID,143,VALID,1.24437,
2005-08-24, 02:44:00,VALID,916.553,VALID,0,VALID,100,VALID,0.0339617,VALID,18.4862,VALID,146,VALID,1.15098,
2005-08-24, 02:45:00,VALID,916.547,VALID,0,VALID,100,VALID,0,VALID,18.48,VALID,140,VALID,1.04161,
2005-08-24, 02:46:00,VALID,916.536,VALID,0,VALID,100,VALID,0,VALID,18.4666,VALID,151,VALID,1.41206,
2005-08-24, 02:47:00,VALID,916.517,VALID,0,VALID,100,VALID,-0.0169808,VALID,18.4701,VALID,141,VALID,1.22638,
2005-08-24, 02:48:00,VALID,916.501,VALID,0,VALID,100,VALID,-0.0169808,VALID,18.4768,VALID,149,VALID,1.16273,
2005-08-24, 02:49:00,VALID,916.477,VALID,0,VALID,100,VALID,0,VALID,18.4766,VALID,147,VALID,1.32794,
2005-08-24, 02:50:00,VALID,916.459,VALID,0,VALID,100,VALID,0,VALID,18.5026,VALID,152,VALID,1.16778,
2005-08-24, 02:51:00,VALID,916.426,VALID,0,VALID,100,VALID,-0.0169808,VALID,18.5188,VALID,151,VALID,0.94043,
2005-08-24, 02:52:00,VALID,916.396,VALID,0,VALID,100,VALID,0,VALID,18.5289,VALID,139,VALID,1.24888,
2005-08-24, 02:53:00,VALID,916.367,VALID,0,VALID,100,VALID,-0.0169808,VALID,18.5446,VALID,146,VALID,1.55959,
2005-08-24, 02:54:00,VALID,916.341,VALID,0,VALID,100,VALID,0,VALID,18.5644,VALID,144,VALID,1.226,
2005-08-24, 02:55:00,VALID,916.309,VALID,0,VALID,100,VALID,0.0169808,VALID,18.5538,VALID,142,VALID,1.42326,
2005-08-24, 02:56:00,VALID,916.28,VALID,0,VALID,100,VALID,-0.0169808,VALID,18.5672,VALID,126,VALID,1.21298,
2005-08-24, 02:57:00,VALID,916.27,VALID,0,VALID,100,VALID,0,VALID,18.5737,VALID,149,VALID,1.05041,
2005-08-24, 02:58:00,VALID,916.253,VALID,0,VALID,100,VALID,-0.0169808,VALID,18.5732,VALID,90,VALID,0.788352,
2005-08-24, 02:59:00,VALID,916.253,VALID,0,VALID,100,VALID,0,VALID,18.5767,VALID,117,VALID,0.972656,
2005-08-24, 03:00:00,VALID,916.275,VALID,0,VALID,100,VALID,-0.0339617,VALID,18.59,VALID,131,VALID,1.02995,
2005-08-24, 03:01:00,VALID,916.295,VALID,0,VALID,100,VALID,0,VALID,18.5833,VALID,127,VALID,1.13876,
2005-08-24, 03:02:00,VALID,916.33,VALID,0,VALID,100,VALID,-0.0339617,VALID,18.5886,VALID,124,VALID,1.2555,
2005-08-24, 03:03:00,VALID,916.326,VALID,0,VALID,100,VALID,0,VALID,18.6189,VALID,133,VALID,1.52804,
2005-08-24, 03:04:00,VALID,916.338,VALID,0,VALID,100,VALID,-0.0679233,VALID,18.6355,VALID,149,VALID,1.20767,
2005-08-24, 03:05:00,VALID,916.349,VALID,0,VALID,100,VALID,-0.0169808,VALID,18.6251,VALID,156,VALID,1.50577,
2005-08-24, 03:06:00,VALID,916.343,VALID,0,VALID,100,VALID,-0.0169808,VALID,18.6251,VALID,153,VALID,1.10653,
2005-08-24, 03:07:00,VALID,916.346,VALID,0,VALID,100,VALID,0,VALID,18.6122,VALID,150,VALID,1.07994,
2005-08-24, 03:08:00,VALID,916.339,VALID,0,VALID,100,VALID,0,VALID,18.5928,VALID,152,VALID,1.17801,
2005-08-24, 03:09:00,VALID,916.343,VALID,0,VALID,100,VALID,-0.0169808,VALID,18.5767,VALID,150,VALID,1.17188,
2005-08-24, 03:10:00,VALID,916.339,VALID,0,VALID,100,VALID,0,VALID,18.5607,VALID,146,VALID,0.838542,
2005-08-24, 03:11:00,VALID,916.333,VALID,0,VALID,100,VALID,0,VALID,18.5347,VALID,149,VALID,0.905506,
2005-08-24, 03:12:00,VALID,916.334,VALID,0,VALID,100,VALID,-0.0169808,VALID,18.5351,VALID,150,VALID,1.06777,
2005-08-24, 03:13:00,VALID,916.339,VALID,0,VALID,100,VALID,-0.0169808,VALID,18.5252,VALID,144,VALID,0.664807,
2005-08-24, 03:14:00,VALID,916.352,VALID,0,VALID,100,VALID,-0.0509425,VALID,18.4959,VALID,142,VALID,0.985937,
2005-08-24, 03:15:00,VALID,916.362,VALID,0,VALID,100,VALID,0.0849042,VALID,18.4915,VALID,147,VALID,0.555051,
2005-08-24, 03:16:00,VALID,916.374,VALID,0,VALID,100,VALID,0.101885,VALID,18.4784,VALID,145,VALID,0.538876,
2005-08-24, 03:17:00,VALID,916.389,VALID,0,VALID,100,VALID,0.0849042,VALID,18.4657,VALID,145,VALID,0.645419,
2005-08-24, 03:18:00,VALID,916.422,VALID,0,VALID,100,VALID,0.0849042,VALID,18.4625,VALID,138,VALID,0.699023,
2005-08-24, 03:19:00,VALID,916.416,VALID,0,VALID,100,VALID,0.0849042,VALID,18.4526,VALID,133,VALID,0.714844,
2005-08-24, 03:20:00,VALID,916.415,VALID,0,VALID,100,VALID,0.0679233,VALID,18.4558,VALID,131,VALID,0.675781,
2005-08-24, 03:21:00,VALID,916.428,VALID,0,VALID,100,VALID,0.0849042,VALID,18.4722,VALID,118,VALID,0.922619,
2005-08-24, 03:22:00,VALID,916.43,VALID,0,VALID,100,VALID,0.101885,VALID,18.4913,VALID,111,VALID,1.0638,
2005-08-24, 03:23:00,VALID,916.439,VALID,0,VALID,100,VALID,0.101885,VALID,18.5141,VALID,124,VALID,0.844122,
2005-08-24, 03:24:00,VALID,916.452,VALID,0,VALID,100,VALID,0.0849042,VALID,18.5111,VALID,115,VALID,0.699128,
2005-08-24, 03:25:00,VALID,916.453,VALID,0,VALID,100,VALID,0.101885,VALID,18.5238,VALID,116,VALID,1.09512,
2005-08-24, 03:26:00,VALID,916.444,VALID,0,VALID,100,VALID,0.0679233,VALID,18.5275,VALID,103,VALID,0.993862,
2005-08-24, 03:27:00,VALID,916.432,VALID,0,VALID,100,VALID,0.0849042,VALID,18.5206,VALID,88,VALID,1.1994,
2005-08-24, 03:28:00,VALID,916.43,VALID,0,VALID,100,VALID,0.101885,VALID,18.5107,VALID,101,VALID,1.24333,
2005-08-24, 03:29:00,VALID,916.43,VALID,0,VALID,100,VALID,0.0509425,VALID,18.4915,VALID,103,VALID,1.17617,
2005-08-24, 03:30:00,VALID,916.437,VALID,0,VALID,100,VALID,0.0169808,VALID,18.4992,VALID,115,VALID,1.06729,
2005-08-24, 03:31:00,VALID,916.428,VALID,0,VALID,100,VALID,0,VALID,18.4989,VALID,126,VALID,0.855291,
2005-08-24, 03:32:00,VALID,916.442,VALID,0,VALID,100,VALID,0,VALID,18.4992,VALID,133,VALID,0.792188,
2005-08-24, 03:33:00,VALID,916.435,VALID,0,VALID,100,VALID,0,VALID,18.4955,VALID,117,VALID,0.853016,
2005-08-24, 03:34:00,VALID,916.435,VALID,0,VALID,100,VALID,0.0339617,VALID,18.4989,VALID,130,VALID,1.22694,
2005-08-24, 03:35:00,VALID,916.425,VALID,0,VALID,100,VALID,0,VALID,18.4955,VALID,106,VALID,0.945131,
2005-08-24, 03:36:00,VALID,916.431,VALID,0,VALID,100,VALID,0,VALID,18.4865,VALID,118,VALID,1.03161,
2005-08-24, 03:37:00,VALID,916.438,VALID,0,VALID,100,VALID,0,VALID,18.4768,VALID,108,VALID,0.856399,
2005-08-24, 03:38:00,VALID,916.44,VALID,0,VALID,100,VALID,0,VALID,18.4733,VALID,121,VALID,1.00353,
2005-08-24, 03:39:00,VALID,916.443,VALID,0,VALID,100,VALID,0,VALID,18.444,VALID,106,VALID,1.004,
2005-08-24, 03:40:00,VALID,916.453,VALID,0,VALID,100,VALID,0.0169808,VALID,18.4279,VALID,137,VALID,1.25745,
2005-08-24, 03:41:00,VALID,916.452,VALID,0,VALID,100,VALID,0,VALID,18.4145,VALID,130,VALID,1.60004,
2005-08-24, 03:42:00,VALID,916.45,VALID,0,VALID,100,VALID,0.0339617,VALID,18.4376,VALID,132,VALID,1.38021,
2005-08-24, 03:43:00,VALID,916.434,VALID,0,VALID,100,VALID,0,VALID,18.4473,VALID,134,VALID,1.43941,